Regional Weather Roundup
Issued by NWS

Home | Current Version | Previous Version | Graphics & Text | Print | Product List | Glossary Off
Versions: 1 2 3 4 5 6 7 8 9 10 11 12 13 14 15 16 17 18 19 20 21 22 23 24 25 26 27 28 29 30 31 32 33 34 35 36 37 38 39 40 41 42 43 44 45 46 47 48 49 50

000
ASUS43 KMKX 280911
RWRWI

WISCONSIN REGIONAL WEATHER ROUNDUP
NATIONAL WEATHER SERVICE MILWAUKEE/SULLIVAN WI
400 AM CDT TUE JUL 28 2015

NOTE: "FAIR" INDICATES FEW OR NO CLOUDS BELOW 12,000 FEET WITH NO
SIGNIFICANT WEATHER AND/OR OBSTRUCTIONS TO VISIBILITY.

WIZ001-002-006>008-014>016-023>028-281000-
NORTHWEST WISCONSIN

CITY           SKY/WX    TMP DP  RH WIND       PRES   REMARKS
SUPERIOR ARPT  CLEAR     67  65  91 E6        29.85F
ASHLAND        CLEAR     60  60 100 CALM      29.91F
HAYWARD        CLEAR     70  64  81 SE5       29.92F
SIREN          CLEAR     72  68  87 SE8       29.86F
CUMBERLAND     CLEAR     68  64  88 SE6       29.91S
RICE LAKE      CLEAR     70  65  85 SE10      29.92S
CHETEK         CLEAR     69  67  92 SE6       29.92S
LADYSMITH      PTCLDY    69  63  81 SE5       29.97S
EAU CLAIRE     CLEAR     71  66  84 SE6       29.91F
MENOMONIE      CLEAR     69  67  94 E7        29.90F
NEW RICHMOND   PTCLDY    72  70  94 SE7       29.87F
OSCEOLA        CLEAR     73  73 100 SE9       29.88F
$$

WIZ003>005-009-010-017-018-281000-
NORTH CENTRAL WISCONSIN

CITY           SKY/WX    TMP DP  RH WIND       PRES   REMARKS
MANITOWISH WTR CLEAR     65  64  95 SE5       29.98F
ARBOR VITAE    CLEAR     69  63  80 S5        29.99F
WOODRUFF       CLEAR     69  63  80 S5        29.99F
RHINELANDER    CLEAR     64  60  87 SE3       30.01F
EAGLE RIVER    CLEAR     64  62  94 CALM      30.01S
LAND O LAKES   CLEAR     57  56  98 CALM      30.01F FOG
PHILLIPS       CLEAR     68  62  81 S7        29.97F
TOMAHAWK       CLEAR     63  60  91 CALM      30.00F
MEDFORD        CLEAR     65  62  88 SE5       29.99F
MERRILL        NOT AVBL
$$

WIZ029-030-035-036-043>047-281000-
CENTRAL WISCONSIN

CITY           SKY/WX    TMP DP  RH WIND       PRES   REMARKS
WAUSAU         CLEAR     64  61  90 E6        29.98F
MOSINEE        CLEAR     63  61  94 E3        30.00F
MARSHFIELD     CLEAR     68  60  75 S6        29.98F
STEVENS POINT  CLEAR     61  59  93 E3        30.00F
WAUPACA        CLEAR     63  63  97 W3        30.00F
WAUTOMA        CLEAR     61  61 100 CALM      30.00F FOG
WISC RAPIDS    CLEAR     68  61  78 S5        29.99F
CAMP DOUGLAS   CLEAR     64  64 100 SE5       29.97S
$$

WIZ011>013-019>022-031-037>040-048>050-281000-
NORTHEAST WISCONSIN

CITY           SKY/WX    TMP DP  RH WIND       PRES   REMARKS
ANTIGO         CLEAR     61  60  96 S7        30.02F
SHAWANO        CLEAR     66  62  85 CALM      30.00S
OCONTO         CLEAR     58  58 100 CALM      29.99F
STURGEON BAY   CLEAR     64  57  77 S7        30.03F
GREEN BAY      FOG       60  59  96 CALM      30.00F VSB 1/2
MANITOWOC      CLEAR     62  60  93 MISG      30.01F
APPLETON       CLEAR     68  59  73 SE6       30.00S
CLINTONVILLE   PTCLDY    61  59  94 CALM      30.00S FOG
OSHKOSH        CLEAR     63  60  90 S5        29.99F
$$

WIZ032>034-041-042-053>061-281000-
SOUTHWEST WISCONSIN

CITY           SKY/WX    TMP DP  RH WIND       PRES   REMARKS
LA CROSSE      CLEAR     73  66  78 SE7       29.91F
SPARTA         CLEAR     68  62  79 E5        29.95F
VIROQUA        CLEAR     68  66  94 SE10      29.96F
BOSCOBEL       CLEAR     70  65  84 CALM      29.96F
PRAIRIE DU CHI CLEAR     70  65  84 E7        29.94S
PLATTEVILLE    CLEAR     68  65  91 E7        29.98S
$$

WIZ056-057-062-063-064-067-068-281000-
SOUTH CENTRAL WISCONSIN

CITY           SKY/WX    TMP DP  RH WIND       PRES   REMARKS
REEDSBURG      CLEAR     69  62  80 SE3       29.98S
BARABOO/DELLS  CLEAR     68  60  75 SE5       29.98F
LONE ROCK      CLEAR     65  61  87 E6        29.98S
MINERAL POINT  CLEAR     68  63  83 SE7       29.99F
MADISON        CLEAR     68  62  81 SE5       29.99F
MIDDLETON      CLEAR     64  62  93 CALM      30.00S
WATERTOWN      CLEAR     61  61 100 CALM      30.00S
MONROE         CLEAR     64  63  94 E6        29.99F
JANESVILLE     CLEAR     64  63  94 CALM      29.99S
$$

WIZ051-052-058>065-066-070>072-281000-
SOUTHEAST WISCONSIN

CITY           SKY/WX    TMP DP  RH WIND       PRES   REMARKS
MILWAUKEE      PTCLDY    67  61  81 CALM      30.00F
WAUKESHA       CLEAR     63  61  94 CALM      30.01F
MILWAUKEE/TIMM CLEAR     63  59  88 CALM      30.02F
RACINE         CLEAR     65  62  90 CALM      30.02F
BURLINGTON     FOG       60  59  99 CALM      30.00F VSB 1
KENOSHA        CLEAR     62  61  96 E3        30.00F FOG
FOND DU LAC    CLEAR     66  63  90 SE8       30.00F
SHEBOYGAN      PTCLDY    61  59  93 CALM      30.02F FOG
WEST BEND      PTCLDY    59  55  88 CALM      30.02F
JUNEAU           N/A     66  61  85 E7        30.02S
$$

LSZ147-162-281000-
LAKE SUPERIOR

STATION/POSITION TIME  TEMP    WIND        PRES    WAVE
                       AIR SEA DIR/SP/G            HT/PER
                 (UTC) (F)     (DEG/KT/KT) (MB)    (FT/S)
W MID LAKE BUOY  0850   65 62  120/  8/  8 1012.9F   0
DEVILS ISLAND    0900   73     170/  9/ 11 1012.2F
PORT WING        0800   75     150/  6/ 10 1012.2F
SAXON HARBOR     0840   72                 1012.5F
$$

LMZ867-665-643>646-281000-
LAKE MICHIGAN

STATION/POSITION TIME  TEMP    WIND        PRES    WAVE
                       AIR SEA DIR/SP/G            HT/PER
                 (UTC) (F)     (DEG/KT/KT) (MB)    (FT/S)
CHAMBERS ISLAND  0800   69     150/  2/  3 1016.3F
S GREEN BAY BUOY 0900   74 76  150/ 10/ 12 1016.9
N MID LAKE BUOY  0850   70 69  190/  4/  4 1015.6F   0
NORTHPORT PIER   0901   69     190/  4/  7 1015.6F
SISTER BAY       0814   69     170/  9/ 12   N/A
ALGOMA LAKESHORE 0827             CALM       N/A
KEWAUNEE LAKESHO 0800   64     290/  3/  4 1015.9F
SHEBOYGAN LAKESH 0900   69     260/  3/  4 1016.3F
PORT WASHINGTON  0800   67     270/  3/  3 1017.3S
ATWATER BUOY     0900   74     110/  2/  4 1017.3F
MILWAUKEE LAKESH 0800   72     330/  3/  4   N/A
KENOSHA   LAKESH 0900   73     120/  5/  6 1015.6F
$$

TC  - TEMPERATURE IN CELSIUS
VSB - VISIBILITY IN STATUTE MILES
WCI - WIND CHILL INDEX
HX  - HEAT INDEX



USA.gov is the U.S. government's official web portal to all federal, state and local government web resources and services.